Temperature
27 28 28 29 28 28 28 27 27 26 25 25 25 24 23 21 21 20 20 19 19 18 18 17 17 17 17 17 17 17 17 17 16 16 15 15 15 14 14 13 12 12 12 12
28 28 29 28 28 27 27 27 27 25 24 25 24 23 22 21 21 20 20 19 19 19 18 18 17 17 17 17 17 17 17 16 16 15 15 15 14 14 13 12 12 11 11 11
28 29 28 28 28 27 27 27 27 26 24 24 24 23 22 22 21 20 20 20 20 20 19 18 18 18 18 17 17 17 17 16 16 15 15 14 14 14 14 13 12 11 11 11
29 29 28 28 28 28 27 27 26 25 25 25 25 25 23 23 22 21 21 20 20 20 20 19 19 18 18 18 17 17 17 16 16 16 15 14 14 14 13 12 12 11 11 11
29 29 28 28 27 27 27 26 26 26 26 26 25 26 25 24 23 23 23 22 21 21 20 20 20 19 19 18 18 17 17 16 16 16 15 14 14 13 13 12 11 11 11 10
29 28 28 28 27 27 26 26 26 26 27 26 25 25 25 25 25 25 24 23 22 21 21 20 20 19 19 18 18 17 17 17 16 16 15 14 13 12 12 11 11 11 12 11
28 28 28 28 27 26 26 27 27 26 26 26 24 25 26 26 26 25 25 24 22 22 21 21 20 20 19 18 18 17 17 16 16 15 14 13 13 12 12 11 12 11 12 12
28 28 29 28 28 28 27 27 26 25 26 26 25 26 26 26 25 25 24 24 23 22 22 21 21 20 19 18 18 17 17 16 15 14 14 13 13 12 12 12 11 11 11 11
28 28 29 28 28 28 28 28 28 27 26 26 26 26 27 26 26 25 25 24 24 23 22 22 21 20 19 18 18 17 16 16 15 14 13 13 12 12 12 11 11 11 11 11
29 28 29 28 28 27 28 28 27 27 25 26 26 26 27 26 26 26 26 25 24 23 22 21 21 20 19 18 17 17 16 15 15 14 13 13 12 12 12 11 11 11 10 10
29 28 28 28 28 28 27 27 27 27 27 26 26 27 28 27 27 27 27 26 25 24 23 22 21 20 19 18 17 17 16 15 15 14 13 13 12 12 11 11 11 11 10 10
28 28 28 28 28 28 28 28 27 26 26 26 26 27 28 28 27 27 27 26 25 24 23 22 20 19 19 18 18 17 16 15 15 14 13 13 12 12 12 11 11 10 10 10
28 27 27 27 27 27 28 28 27 27 26 26 26 27 27 27 27 26 26 25 24 22 22 21 20 19 19 18 18 17 16 15 15 14 13 13 12 12 11 11 11 10 10 10
27 27 27 26 27 28 27 28 27 27 27 27 27 27 28 28 27 27 25 24 24 22 21 21 20 19 19 18 18 17 16 16 15 14 14 13 12 12 12 11 11 10 10 10
27 27 27 28 28 28 28 27 27 27 27 27 27 27 28 28 27 27 25 24 23 22 21 21 20 20 19 19 18 17 17 16 15 14 14 13 12 12 11 11 10 10 10 10
26 26 27 27 28 28 27 27 27 27 27 27 27 27 28 27 26 25 25 24 23 22 22 21 21 20 20 19 18 17 17 16 15 14 14 13 12 12 11 11 10 10 10 9
27 26 26 26 27 27 26 27 27 27 28 27 27 28 28 27 26 26 25 24 24 23 23 22 21 20 20 19 18 18 17 16 15 14 14 13 12 12 11 11 10 10 9 9
26 25 26 26 26 25 27 29 28 27 28 28 27 28 27 27 26 25 24 24 24 23 23 22 21 21 20 19 18 18 17 16 15 14 14 13 12 12 11 11 10 10 9 9
25 25 25 26 25 26 28 28 28 27 27 28 28 28 27 26 25 26 25 24 24 24 23 22 22 21 20 19 19 18 17 16 15 15 14 13 12 12 11 10 10 10 9 9
24 24 25 25 24 24 26 27 27 27 26 28 27 27 27 26 26 27 26 25 24 23 23 22 22 21 20 20 19 18 17 16 15 15 14 13 13 12 12 11 11 10 9 9
25 24 24 24 24 25 27 26 26 25 25 26 26 26 26 26 26 26 26 25 24 23 23 22 21 21 20 20 19 18 17 16 15 14 14 13 13 12 12 11 11 10 9 9
26 26 25 25 24 25 26 26 26 24 23 24 24 24 24 24 24 24 24 23 23 22 22 21 21 21 20 20 19 18 17 16 15 14 14 13 13 12 11 11 11 10 9 9
26 26 26 26 26 25 24 23 22 21 21 21 22 22 23 23 23 23 23 22 22 21 21 20 20 20 19 19 19 18 18 16 16 15 14 14 13 12 12 11 10 10 9 9
26 25 25 25 26 24 21 20 19 19 19 19 20 20 21 21 21 21 21 20 20 20 19 19 19 18 18 19 19 18 17 16 16 15 14 14 13 12 11 11 10 10 9 9
25 24 25 24 24 23 20 17 17 17 17 18 18 18 19 19 19 19 18 18 18 18 18 18 18 17 17 17 18 18 17 16 15 15 14 13 12 12 12 11 11 10 9 9
23 23 23 23 20 21 18 16 16 17 17 17 17 17 17 17 17 17 17 17 17 17 17 17 16 16 16 16 17 16 16 16 15 14 13 13 12 12 11 11 10 10 10 9
Wind_Speed
5 7 5 5 6 7 7 6 4 0 2 3 3 3 5 6 6 6 5 5 6 7 8 9 8 8 8 7 7 6 6 5 4 2 2 2 3 4 4 5 5 6 6 6
6 5 4 3 4 6 6 6 2 3 3 2 3 3 4 6 7 6 7 7 8 8 9 9 9 9 9 9 9 8 8 7 6 3 2 2 3 4 4 4 4 5 6 6
8 4 1 3 5 5 4 5 3 2 4 4 4 5 6 6 6 6 7 8 9 10 11 11 11 11 11 10 11 9 9 8 7 5 4 3 3 5 4 4 4 4 6 6
5 2 3 5 4 5 3 2 1 4 6 2 3 1 5 7 9 9 10 11 11 11 11 12 12 12 12 12 11 11 10 9 7 6 6 6 6 7 6 5 5 6 5 6
4 3 4 4 2 3 2 1 3 4 4 2 1 2 5 7 8 11 12 13 12 12 13 13 13 12 12 11 10 9 9 8 8 7 6 6 7 6 6 5 5 6 5 5
4 2 3 1 2 2 5 4 5 6 6 1 1 2 4 5 6 9 11 12 13 13 13 13 12 11 10 9 9 8 8 8 8 7 7 7 7 7 8 7 7 6 5 4
4 4 4 4 4 5 5 5 4 3 2 2 2 3 3 6 6 7 9 11 12 12 12 12 12 11 10 9 9 8 8 8 8 8 7 7 7 8 8 8 6 6 6 5
4 3 4 4 4 2 3 6 6 6 5 2 3 1 3 7 7 7 8 8 10 11 11 10 10 9 8 8 8 8 8 7 7 7 7 7 7 8 7 6 7 7 7 6
4 1 3 1 2 3 3 3 5 4 3 3 2 1 3 8 9 10 9 9 9 9 9 8 8 8 8 8 8 8 8 7 7 7 7 7 8 8 8 8 9 8 6 7
4 5 2 4 5 1 3 1 3 4 5 3 1 1 1 5 9 11 11 10 9 9 9 9 8 8 8 8 8 7 7 7 7 7 8 7 7 8 8 9 9 9 9 9
3 5 3 5 5 3 4 4 4 4 5 6 5 3 3 2 6 8 10 10 10 10 9 9 9 8 8 8 8 8 8 8 8 8 8 8 9 9 9 9 10 10 10 9
2 5 6 3 1 1 5 4 4 6 5 5 8 4 7 4 4 7 8 9 9 9 9 9 9 8 8 8 8 8 7 8 8 8 8 9 9 9 10 11 10 10 10 11
3 4 7 4 5 6 5 4 5 6 7 8 9 4 7 4 5 7 8 8 9 10 10 9 9 9 9 8 8 7 7 7 7 7 8 9 10 10 11 11 11 10 11 11
4 6 8 8 6 4 6 6 6 9 10 10 10 11 5 4 5 7 8 9 10 10 10 10 10 9 9 8 8 7 7 7 7 7 8 9 10 10 10 11 11 11 11 11
5 9 10 10 8 8 10 10 9 11 12 13 12 11 8 5 4 5 7 9 10 10 11 11 10 9 9 9 8 8 7 7 7 8 9 9 9 10 10 10 11 11 11 12
5 10 11 12 10 9 11 11 11 10 10 11 11 10 5 1 3 5 7 9 10 11 12 12 11 10 10 9 9 8 8 7 7 8 9 9 9 10 10 10 11 11 11 12
6 7 11 12 9 9 11 8 7 6 7 8 10 8 3 2 4 6 7 9 11 11 11 12 12 11 10 9 9 9 8 7 7 8 9 9 9 10 10 11 11 11 12 12
6 7 8 11 9 11 6 1 4 7 8 8 9 8 5 5 4 6 8 9 11 11 11 12 12 11 10 10 9 8 8 7 8 8 8 9 9 10 10 10 11 11 11 11
5 6 7 8 11 11 7 4 4 7 9 6 6 7 5 3 5 9 10 12 12 12 12 11 12 12 10 10 10 9 9 8 8 9 8 8 9 10 10 11 11 11 11 11
4 6 7 7 8 8 4 4 1 5 7 4 3 7 7 4 9 8 4 8 12 13 12 12 12 11 11 11 11 10 10 9 9 9 8 8 8 9 10 11 11 11 11 12
5 5 7 8 8 8 3 3 2 6 6 11 10 10 10 9 11 12 8 7 10 11 12 12 12 12 12 12 12 11 11 10 9 8 8 8 8 9 10 10 10 11 11 12
8 6 6 6 8 4 6 3 4 8 11 12 13 12 12 12 14 14 12 10 10 10 11 11 11 12 11 12 12 12 11 9 8 7 8 9 9 9 9 10 11 11 11 12
7 6 5 5 6 5 6 6 8 10 12 13 13 14 13 13 14 14 12 11 10 10 10 10 11 12 11 12 12 13 11 9 8 8 9 9 9 9 10 11 11 11 10 10
5 1 5 7 6 4 8 10 10 10 10 11 11 11 11 10 11 11 10 9 8 8 7 8 9 11 11 11 12 12 10 9 9 10 10 9 9 10 10 9 10 10 10 10
4 3 6 9 5 1 7 12 11 10 11 11 11 11 11 10 10 10 9 9 9 8 6 5 6 8 9 10 10 10 10 10 10 11 10 10 10 10 9 10 10 11 10 9
2 3 6 3 4 4 5 9 9 10 12 12 13 13 14 14 13 12 11 11 10 9 8 6 5 6 7 7 8 9 10 11 11 10 10 10 9 8 9 10 11 12 14 13
Wind_Direction
219 250 274 312 291 299 298 289 287 91 136 223 206 181 170 181 190 183 182 177 181 180 166 167 173 177 177 180 183 187 195 184 200 216 266 307 330 336 339 345 2 343 342 340
245 261 316 307 277 265 269 274 261 143 151 221 172 159 164 184 194 190 185 184 186 178 171 175 183 191 197 197 203 206 210 209 216 214 251 290 314 315 326 329 337 333 335 329
278 334 6 267 272 268 274 293 295 193 161 182 195 170 172 175 184 188 190 191 192 190 186 188 197 204 209 213 215 219 220 219 223 222 239 255 263 272 290 321 320 330 322 318
273 284 262 280 289 288 297 3 232 186 210 175 249 197 146 172 180 190 197 198 198 196 197 200 206 213 217 221 222 224 225 225 222 220 244 273 296 307 318 310 316 312 299 306
285 270 273 284 325 291 33 117 190 208 234 215 239 296 127 168 182 190 195 197 197 198 203 209 215 219 224 227 228 226 224 221 217 222 234 255 277 294 297 301 297 294 294 292
275 252 274 5 70 130 143 167 189 216 233 235 38 304 129 156 167 174 184 192 196 198 206 214 220 223 227 227 225 224 215 213 210 218 233 251 274 281 290 291 297 292 292 289
211 189 167 172 159 159 218 269 265 235 235 62 106 279 103 140 161 169 176 185 193 201 208 214 218 219 219 219 217 212 206 208 210 220 234 246 258 266 265 274 283 287 296 296
254 204 171 203 263 266 246 299 331 331 345 36 165 305 116 157 169 182 187 185 190 201 207 212 212 209 208 206 202 202 204 209 213 225 235 245 253 261 268 268 283 286 289 298
299 299 125 165 242 268 244 292 342 299 299 298 72 13 169 178 192 194 194 194 198 201 202 202 197 195 195 195 196 200 204 213 221 233 237 245 251 262 275 275 264 271 277 282
305 289 180 155 170 112 310 270 271 304 323 319 0 294 39 184 200 197 199 200 199 194 194 192 190 190 191 192 194 202 211 222 233 239 245 251 255 258 261 268 275 277 279 278
281 283 246 207 243 250 188 213 267 292 311 311 326 7 88 187 201 204 205 204 198 195 191 186 185 186 189 194 199 208 218 229 239 248 251 259 263 267 265 264 266 268 272 276
256 290 290 261 137 285 257 259 248 282 293 283 300 324 125 179 202 215 218 204 198 194 189 185 184 186 196 205 211 216 227 236 245 253 257 259 263 268 270 270 269 269 269 272
196 267 277 225 187 193 223 230 254 275 281 278 284 312 128 178 215 218 223 211 196 190 188 188 190 197 206 213 220 229 236 247 254 256 260 264 268 271 272 275 276 274 272 274
229 264 285 302 313 296 271 252 241 261 275 282 282 296 286 249 232 222 215 211 201 194 193 198 200 206 213 217 222 232 243 253 259 264 268 271 274 278 280 279 278 276 275 276
235 258 263 276 283 279 282 284 269 258 274 283 294 297 302 299 255 231 214 207 205 202 203 207 211 212 213 216 220 229 239 248 256 264 272 277 279 280 280 279 278 278 278 278
237 270 273 269 266 269 274 277 277 271 268 272 281 286 299 282 222 219 216 215 215 216 215 216 217 219 218 219 222 226 233 242 248 260 272 280 282 283 282 281 280 280 279 281
242 255 265 270 268 266 265 265 273 271 269 274 285 304 328 253 234 241 236 229 230 229 225 223 223 223 222 219 217 221 228 236 245 257 269 277 280 283 285 285 285 284 284 284
244 251 259 268 267 261 273 271 280 283 285 277 279 288 280 269 269 256 247 243 239 236 232 228 228 225 220 216 211 214 221 229 244 257 269 277 281 283 285 284 284 285 286 285
227 229 255 265 261 259 263 239 251 276 288 295 286 289 277 256 263 255 235 232 239 240 235 233 232 230 219 213 208 207 220 231 244 256 266 276 282 285 286 285 286 288 287 284
174 216 243 249 268 272 303 54 7 276 273 2 325 301 295 245 277 298 295 228 232 236 235 231 229 225 212 206 201 208 222 232 242 255 264 273 277 281 283 285 286 287 285 282
189 201 236 248 257 263 12 51 221 261 346 359 334 314 301 270 276 303 300 257 240 238 236 231 227 222 214 201 196 209 224 233 243 254 260 265 270 275 277 280 280 282 282 283
252 242 233 251 263 289 67 5 321 339 338 332 325 317 308 291 285 289 287 275 263 255 246 234 226 225 215 200 197 211 223 230 237 247 255 262 267 274 279 277 277 278 279 279
244 282 290 276 289 16 24 1 355 342 327 325 322 318 312 300 293 295 293 288 279 270 262 248 236 232 219 205 204 214 219 218 223 234 247 256 263 267 271 273 275 274 270 272
222 172 272 274 278 10 38 28 12 0 346 338 336 332 329 320 318 320 322 322 317 304 287 267 251 242 228 213 210 214 212 209 217 229 240 248 257 262 264 266 269 271 274 275
318 260 269 263 286 315 57 24 13 17 19 17 19 21 15 11 8 5 4 0 353 344 329 299 267 254 244 225 217 213 207 205 219 233 239 247 255 261 269 267 266 270 271 278
318 281 273 312 34 352 35 25 25 34 35 33 32 33 32 30 26 25 25 20 13 6 357 339 311 285 268 243 227 218 213 208 217 232 240 246 251 255 261 270 272 239 236 248
Height
1519 1516 1511 1509 1508 1510 1509 1511 1514 1516 1519 1519 1521 1523 1526 1530 1533 1534 1536 1537 1539 1541 1543 1545 1547 1549 1550 1551 1552 1553 1554 1554 1554 1555 1555 1554 1553 1551 1549 1547 1543 1542 1540 1539
1514 1511 1508 1509 1510 1510 1510 1512 1513 1518 1520 1520 1521 1524 1527 1530 1532 1534 1535 1537 1538 1540 1543 1545 1547 1548 1550 1551 1551 1552 1553 1553 1553 1553 1552 1551 1550 1549 1547 1545 1542 1540 1538 1537
1511 1508 1509 1509 1509 1509 1509 1510 1511 1516 1520 1520 1521 1525 1526 1529 1532 1534 1535 1536 1538 1540 1542 1544 1546 1548 1549 1549 1550 1551 1551 1551 1551 1551 1551 1550 1548 1547 1546 1544 1542 1539 1537 1535
1506 1506 1508 1508 1507 1507 1509 1508 1511 1515 1517 1516 1518 1522 1523 1523 1528 1531 1533 1535 1536 1539 1541 1543 1544 1546 1547 1548 1549 1549 1549 1549 1548 1548 1549 1548 1547 1546 1544 1542 1540 1537 1535 1533
1504 1505 1507 1508 1508 1507 1509 1510 1510 1511 1512 1513 1515 1515 1519 1519 1522 1524 1527 1530 1533 1536 1538 1540 1542 1543 1545 1546 1546 1546 1546 1546 1546 1546 1545 1545 1544 1543 1542 1540 1538 1535 1534 1531
1504 1505 1505 1506 1508 1508 1511 1511 1511 1509 1505 1517 1518 1517 1519 1513 1515 1517 1522 1526 1530 1533 1535 1537 1539 1540 1541 1542 1543 1543 1543 1543 1543 1543 1542 1542 1541 1539 1538 1537 1535 1534 1533 1530
1505 1503 1504 1506 1507 1510 1509 1510 1513 1514 1515 1518 1517 1515 1514 1510 1512 1515 1518 1522 1526 1529 1532 1534 1535 1537 1538 1539 1540 1540 1540 1540 1540 1540 1539 1538 1537 1536 1535 1534 1533 1531 1531 1529
1507 1507 1501 1502 1503 1504 1506 1506 1518 1526 1521 1513 1514 1513 1507 1507 1512 1515 1517 1519 1523 1526 1528 1530 1532 1533 1535 1536 1537 1537 1538 1538 1537 1537 1536 1535 1534 1533 1533 1531 1530 1529 1527 1526
1503 1505 1500 1502 1502 1502 1504 1502 1501 1508 1511 1514 1510 1507 1502 1506 1509 1512 1514 1517 1520 1522 1525 1527 1529 1530 1532 1533 1534 1535 1535 1534 1534 1534 1533 1531 1530 1529 1529 1527 1526 1525 1523 1522
1499 1506 1498 1502 1503 1505 1502 1501 1505 1508 1521 1521 1513 1509 1506 1503 1504 1506 1510 1513 1516 1519 1522 1524 1526 1528 1529 1530 1531 1531 1531 1531 1531 1530 1529 1529 1527 1526 1524 1523 1522 1521 1519 1517
1499 1505 1500 1499 1501 1499 1505 1506 1504 1503 1508 1518 1519 1509 1493 1497 1499 1501 1505 1509 1512 1515 1518 1521 1523 1525 1526 1527 1528 1528 1528 1527 1527 1526 1525 1524 1523 1522 1521 1519 1518 1516 1515 1513
1500 1500 1502 1498 1496 1498 1498 1499 1503 1511 1511 1509 1511 1505 1491 1494 1496 1499 1501 1505 1509 1512 1515 1518 1520 1521 1523 1524 1524 1525 1524 1524 1523 1522 1521 1520 1519 1518 1517 1516 1514 1512 1510 1508
1501 1504 1509 1505 1504 1500 1497 1498 1499 1502 1506 1506 1509 1502 1492 1494 1496 1498 1500 1503 1507 1510 1512 1515 1516 1518 1519 1520 1521 1521 1521 1521 1520 1519 1518 1516 1515 1514 1512 1511 1509 1507 1505 1503
1501 1500 1506 1511 1504 1496 1497 1496 1497 1501 1502 1501 1499 1495 1488 1489 1492 1495 1498 1501 1504 1507 1509 1511 1513 1514 1515 1516 1517 1517 1517 1517 1516 1515 1514 1513 1511 1510 1508 1506 1504 1502 1500 1498
1500 1499 1496 1493 1490 1492 1494 1493 1493 1497 1497 1498 1493 1490 1486 1486 1489 1492 1495 1498 1501 1504 1505 1507 1509 1510 1511 1512 1513 1513 1513 1512 1512 1511 1510 1509 1507 1505 1503 1501 1499 1497 1494 1492
1499 1498 1495 1495 1489 1490 1492 1490 1489 1489 1490 1490 1490 1488 1482 1486 1489 1491 1493 1495 1497 1499 1501 1503 1505 1506 1507 1508 1508 1509 1509 1508 1507 1506 1505 1504 1502 1500 1498 1496 1493 1491 1489 1487
1493 1498 1499 1497 1488 1491 1495 1485 1485 1485 1483 1486 1487 1483 1482 1485 1487 1489 1490 1492 1493 1495 1497 1499 1500 1501 1502 1503 1504 1504 1504 1504 1503 1502 1500 1499 1497 1495 1493 1491 1489 1486 1484 1481
1495 1496 1495 1494 1495 1507 1487 1476 1479 1481 1480 1479 1481 1481 1482 1484 1486 1487 1487 1488 1489 1491 1492 1494 1496 1497 1498 1498 1499 1499 1499 1499 1498 1497 1496 1495 1492 1490 1488 1485 1483 1480 1478 1475
1493 1495 1494 1494 1497 1493 1479 1475 1477 1481 1480 1475 1477 1479 1480 1482 1484 1482 1482 1484 1485 1486 1488 1489 1491 1492 1493 1493 1494 1494 1494 1494 1493 1493 1491 1490 1488 1485 1483 1480 1478 1475 1472 1469
1494 1494 1493 1494 1501 1502 1483 1476 1478 1481 1482 1475 1477 1478 1478 1480 1479 1475 1477 1479 1480 1481 1483 1484 1485 1486 1486 1487 1488 1488 1489 1489 1488 1488 1486 1484 1482 1480 1477 1475 1472 1469 1467 1464
1489 1493 1493 1494 1496 1487 1476 1478 1480 1487 1485 1479 1479 1478 1477 1477 1477 1476 1475 1476 1476 1477 1477 1478 1479 1479 1480 1481 1481 1482 1483 1483 1483 1482 1481 1479 1477 1474 1472 1469 1466 1464 1461 1459
1481 1483 1488 1488 1493 1489 1479 1478 1481 1484 1483 1482 1480 1479 1477 1476 1474 1473 1473 1473 1473 1472 1472 1473 1472 1472 1473 1474 1475 1476 1477 1478 1477 1476 1475 1474 1472 1469 1467 1464 1461 1458 1456 1453
1476 1475 1476 1480 1482 1480 1482 1484 1486 1486 1484 1482 1480 1477 1475 1473 1471 1470 1469 1468 1468 1467 1467 1467 1467 1466 1466 1467 1468 1469 1471 1471 1471 1470 1469 1468 1466 1464 1461 1459 1456 1453 1451 1448
1471 1478 1478 1479 1475 1480 1484 1486 1486 1485 1483 1481 1478 1476 1473 1471 1469 1467 1466 1465 1464 1463 1462 1462 1461 1461 1460 1460 1461 1463 1464 1464 1464 1464 1463 1461 1460 1458 1456 1453 1451 1449 1446 1444
1474 1477 1476 1478 1478 1481 1485 1487 1487 1485 1483 1480 1477 1475 1473 1470 1468 1466 1464 1463 1461 1460 1458 1457 1456 1455 1455 1455 1455 1456 1457 1458 1458 1457 1456 1455 1454 1452 1450 1447 1445 1442 1440 1438
1478 1478 1478 1477 1485 1485 1488 1489 1487 1485 1483 1481 1479 1476 1474 1471 1470 1467 1465 1462 1460 1458 1456 1455 1453 1451 1451 1450 1450 1450 1450 1450 1450 1450 1449 1448 1448 1446 1444 1442 1439 1436 1433 1430